Location: Black Skies Observatory
(44.7549°N, 79.7179°W)
Time: 14:46:03
(UTC-05:00)

Envisat - Pass Details

Date: 31 October 2020
Orbit: 764 x 766 km, 98.1° (Epoch: 01 December)

Event Time Altitude Azimuth Distance (km) Brightness Sun altitude
Rises 07:10:46 0° 15° (NNE) 3,242 6.3 -8.6°
Reaches altitude 10° 07:13:06 10° 18° (NNE) 2,311 5.6 -8.2°
Maximum altitude 07:18:11 69° 102° (ESE) 822 3.5 -7.3°
Drops below altitude 10° 07:23:13 10° 185° (S) 2,293 5.6 -6.4°
Sets 07:25:32 0° 188° (S) 3,215 6.3 -6.0°
